Back to catalog

SL-14 DEB

AlivePO
NORAD 47078·DEBRIS·🇷🇺 Russia

Launched Aug 15, 1991 from Plesetsk Cosmodrome

Loading…

Next Passes (next 24 hours)

TLE

FreshSource: Space-Track

Epoch: Sep 14, 2026, 08:41 UTC

1 47078U 91056DC  26257.36236285  .00000518  00000-0  10734-2 0  9995
2 47078  82.5550  43.8748 0041726  63.7059 296.8348 13.30243793284398

Track SL-14 DEB in real time with AllMySat

Download on the App Store